TimeMST,TemperatureF,Dew PointF,Humidity,Sea Level PressureIn,VisibilityMPH,Wind Direction,Wind SpeedMPH,Gust SpeedMPH,PrecipitationIn,Events,Conditions,WindDirDegrees,DateUTC
12:55 AM,35.6,26.6,70,30.26,25.0,South,8.1,-,N/A,,Scattered Clouds,180,2012-11-05 07:55:00
1:55 AM,33.8,26.6,75,30.26,25.0,South,8.1,-,N/A,,Scattered Clouds,180,2012-11-05 08:55:00
2:55 AM,33.8,28.4,81,30.26,25.0,South,8.1,-,N/A,,Scattered Clouds,180,2012-11-05 09:55:00
3:55 AM,33.8,28.4,81,30.24,25.0,South,8.1,-,N/A,,Scattered Clouds,180,2012-11-05 10:55:00
4:55 AM,33.8,28.4,81,30.26,25.0,South,9.2,-,N/A,,Scattered Clouds,190,2012-11-05 11:55:00
5:55 AM,33.8,28.4,81,30.27,10.0,South,12.7,-,N/A,,Scattered Clouds,180,2012-11-05 12:55:00
6:55 AM,35.6,30.2,81,30.26,70.0,South,9.2,-,N/A,,Mostly Cloudy,180,2012-11-05 13:55:00
7:55 AM,41.0,32.0,70,30.25,70.0,South,9.2,-,N/A,,Mostly Cloudy,190,2012-11-05 14:55:00
8:55 AM,48.2,32.0,54,30.22,70.0,South,13.8,-,N/A,,Mostly Cloudy,190,2012-11-05 15:55:00
9:55 AM,53.6,32.0,44,30.19,70.0,South,10.4,-,N/A,,Mostly Cloudy,180,2012-11-05 16:55:00
10:55 AM,57.2,32.0,38,30.17,70.0,SSW,6.9,-,N/A,,Mostly Cloudy,210,2012-11-05 17:55:00
11:55 AM,59.0,30.2,34,30.12,70.0,Calm,Calm,-,N/A,,Mostly Cloudy,0,2012-11-05 18:55:00
12:55 PM,62.6,28.4,27,30.09,70.0,NW,3.5,-,N/A,,Mostly Cloudy,320,2012-11-05 19:55:00
1:55 PM,62.6,28.4,27,30.06,70.0,Calm,Calm,-,N/A,,Mostly Cloudy,0,2012-11-05 20:55:00
2:55 PM,62.6,30.2,30,30.06,70.0,NNW,3.5,-,N/A,,Mostly Cloudy,340,2012-11-05 21:55:00
3:55 PM,60.8,30.2,31,30.05,70.0,WNW,8.1,-,N/A,,Mostly Cloudy,290,2012-11-05 22:55:00
4:55 PM,57.2,28.4,33,30.07,25.0,NW,6.9,-,N/A,,Mostly Cloudy,310,2012-11-05 23:55:00
5:55 PM,57.2,26.6,31,30.09,25.0,Calm,Calm,-,N/A,,Mostly Cloudy,0,2012-11-06 00:55:00
6:55 PM,51.8,28.4,41,30.10,25.0,South,6.9,-,N/A,,Mostly Cloudy,190,2012-11-06 01:55:00
7:55 PM,51.8,26.6,38,30.09,25.0,SW,6.9,-,N/A,,Mostly Cloudy,230,2012-11-06 02:55:00
8:55 PM,51.8,26.6,38,30.09,25.0,WSW,5.8,-,N/A,,Mostly Cloudy,250,2012-11-06 03:55:00
9:55 PM,53.6,24.8,33,30.07,25.0,SW,4.6,-,N/A,,Mostly Cloudy,230,2012-11-06 04:55:00
10:55 PM,51.8,26.6,38,30.07,25.0,SSW,5.8,-,N/A,,Mostly Cloudy,210,2012-11-06 05:55:00
11:55 PM,44.6,26.6,49,30.09,25.0,SSW,5.8,-,N/A,,Scattered Clouds,200,2012-11-06 06:55:00